Weather History for Conway, SC

Change the Weather History Date:

Thursday, September 26, 2013

  Actual Average Record
Temperature  
Mean Temperature 68 °F -  
Max Temperature 78 °F 82 °F 82 °F (2010)
Min Temperature 59 °F 62 °F 51 °F (2012)
Cooling Degree Days 4    
Growing Degree Days 18 (Base 50)    
Moisture  
Dew Point 60 °F    
Average Humidity 82    
Maximum Humidity 100    
Minimum Humidity 39    
Precipitation  
Precipitation 0.15 in - - ()
Sea Level Pressure  
Sea Level Pressure 29.90 in    
Wind  
Wind Speed 4 mph (NNE)    
Max Wind Speed 13 mph    
Max Gust Speed 16 mph    
Visibility 7 miles    
Events Rain    
Averages and records for this station are not official NWS values.
T = Trace of Precipitation, MM = Missing Value Source: NWS Daily Summary

Daily Weather History Graph

Daily Weather History Graph

Search for Another Location

Airport:

Trip Planner

Search our weather history database for the weather conditions in past years. The results will help you decide how hot, cold, wet, or windy it might be!

Date:

Astronomy

Sep. 26, 2013 Rise Set
Actual Time 7:07 AM EDT 7:07 PM EDT
Civil Twilight 6:42 AM EDT 7:32 PM EDT
Nautical Twilight 6:13 AM EDT 8:01 PM EDT
Astronomical Twilight 5:44 AM EDT 8:30 PM EDT
Moon No Moon Rise 1:44 PM EDT (9/26)
Length of Visible Light 12h 49m
Length of Day
11h 59m
Waning Gibbous, 55% of the Moon is Illuminated
Sep 26
Waning Gibbous
Sep 26
Last Quarter
Oct 4
New
Oct 11
First Quarter
Oct 18
Full

Hourly Weather History & Observations

Time (EDT) Temp. Dew Point Humidity Pressure Visibility Wind Dir Wind Speed Gust Speed Precip Events Conditions
12:15 AM 64.4 °F 64.4 °F 100% 29.86 in 7.0 mi Calm Calm - N/A Rain Light Rain
12:35 AM 64.4 °F 64.4 °F 100% 29.86 in 5.0 mi Calm Calm - 0.01 in   Overcast
12:55 AM 64.4 °F 64.4 °F 100% 29.86 in 5.0 mi North 3.5 mph - 0.01 in Rain Rain
1:15 AM 64.4 °F 64.4 °F 100% 29.86 in 3.0 mi Calm Calm - 0.06 in Rain Heavy Rain
1:35 AM 64.4 °F 64.4 °F 100% 29.86 in 4.0 mi Calm Calm - 0.12 in Rain Light Rain
1:55 AM 62.6 °F 62.6 °F 100% 29.86 in 7.0 mi North 3.5 mph - 0.12 in Rain Rain
2:15 AM 62.6 °F 62.6 °F 100% 29.85 in 7.0 mi NNE 5.8 mph - 0.01 in Rain Light Rain
2:35 AM 62.6 °F 62.6 °F 100% 29.85 in 7.0 mi North 4.6 mph - 0.01 in   Overcast
2:55 AM 62.6 °F 62.6 °F 100% 29.85 in 7.0 mi North 4.6 mph - 0.01 in   Overcast
3:15 AM 62.6 °F 62.6 °F 100% 29.84 in 7.0 mi NNE 6.9 mph - N/A Rain Light Rain
3:35 AM 62.6 °F 62.6 °F 100% 29.85 in 7.0 mi North 3.5 mph - 0.01 in Rain Light Rain
3:55 AM 62.6 °F 62.6 °F 100% 29.85 in 7.0 mi North 3.5 mph - 0.01 in   Overcast
4:15 AM 62.6 °F 62.6 °F 100% 29.85 in 5.0 mi North 3.5 mph - N/A   Overcast
4:35 AM 62.6 °F 62.6 °F 100% 29.85 in 5.0 mi North 3.5 mph - N/A   Overcast
4:55 AM 62.6 °F 62.6 °F 100% 29.85 in 7.0 mi North 4.6 mph - N/A   Overcast
5:15 AM 62.6 °F 62.6 °F 100% 29.85 in 7.0 mi North 6.9 mph - N/A Rain Rain
5:35 AM 62.6 °F 62.6 °F 100% 29.86 in 10.0 mi North 5.8 mph - N/A   Light Drizzle
5:55 AM 62.6 °F 62.6 °F 100% 29.86 in 7.0 mi North 5.8 mph - N/A   Overcast
6:15 AM 62.6 °F 62.6 °F 100% 29.86 in 10.0 mi NNE 5.8 mph - N/A Rain Rain
6:35 AM 62.6 °F 62.6 °F 100% 29.86 in 7.0 mi NNE 6.9 mph - N/A   Overcast
6:55 AM 62.6 °F 62.6 °F 100% 29.86 in 7.0 mi North 4.6 mph - N/A   Overcast
7:15 AM 62.6 °F 62.6 °F 100% 29.87 in 7.0 mi North 4.6 mph - N/A   Overcast
7:35 AM 62.6 °F 62.6 °F 100% 29.87 in 7.0 mi North 5.8 mph - N/A   Overcast
7:55 AM 62.6 °F 62.6 °F 100% 29.88 in 7.0 mi NNE 5.8 mph - N/A   Overcast
8:15 AM 62.6 °F 62.6 °F 100% 29.89 in 7.0 mi NNE 4.6 mph - N/A   Overcast
8:35 AM 64.4 °F 64.4 °F 100% 29.89 in 5.0 mi NNE 6.9 mph - N/A   Overcast
8:55 AM 64.4 °F 64.4 °F 100% 29.90 in 7.0 mi NNE 4.6 mph - N/A   Overcast
9:15 AM 64.4 °F 64.4 °F 100% 29.90 in 5.0 mi NNE 5.8 mph - N/A   Overcast
9:35 AM 64.4 °F 64.4 °F 100% 29.91 in 5.0 mi NNE 8.1 mph - N/A   Overcast
9:55 AM 66.2 °F 64.4 °F 94% 29.91 in 7.0 mi North 5.8 mph - N/A   Overcast
10:15 AM 68.0 °F 62.6 °F 83% 29.91 in 5.0 mi NNE 10.4 mph - N/A   Haze
10:35 AM 69.8 °F 60.8 °F 73% 29.91 in 7.0 mi NNE 11.5 mph - N/A   Overcast
10:55 AM 69.8 °F 60.8 °F 73% 29.92 in 7.0 mi NE 11.5 mph - N/A   Overcast
11:15 AM 69.8 °F 60.8 °F 73% 29.91 in 7.0 mi NNE 10.4 mph - N/A   Overcast
11:35 AM 69.8 °F 60.8 °F 73% 29.91 in 7.0 mi NNE 12.7 mph - N/A   Overcast
11:55 AM 71.6 °F 59.0 °F 64% 29.91 in 7.0 mi NNE 9.2 mph - N/A   Overcast
12:15 PM 71.6 °F 59.0 °F 64% 29.91 in 7.0 mi North 10.4 mph 16.1 mph N/A   Mostly Cloudy
12:35 PM 73.4 °F 60.8 °F 65% 29.91 in 7.0 mi NE 10.4 mph - N/A   Scattered Clouds
12:55 PM 77.0 °F 60.8 °F 57% 29.90 in 7.0 mi NE 10.4 mph - N/A   Mostly Cloudy
1:15 PM 73.4 °F 60.8 °F 65% 29.91 in 7.0 mi NNE 10.4 mph - N/A   Overcast
1:35 PM 73.4 °F 60.8 °F 65% 29.90 in 7.0 mi North 3.5 mph - N/A   Overcast
1:55 PM 75.2 °F 59.0 °F 57% 29.90 in 4.0 mi NNE 10.4 mph - N/A   Haze
2:15 PM 77.0 °F 57.2 °F 50% 29.89 in 5.0 mi North 10.4 mph - N/A   Haze
2:35 PM 77.0 °F 55.4 °F 47% 29.89 in 7.0 mi NNE 10.4 mph - N/A   Overcast
2:55 PM 77.0 °F 55.4 °F 47% 29.89 in 7.0 mi NNE 4.6 mph - N/A   Overcast
3:15 PM 77.0 °F 55.4 °F 47% 29.89 in 5.0 mi NE 10.4 mph - N/A   Haze
3:35 PM 77.0 °F 55.4 °F 47% 29.88 in 7.0 mi NE 8.1 mph - N/A   Scattered Clouds
3:55 PM 78.8 °F 51.8 °F 39% 29.88 in 7.0 mi NNE 9.2 mph - N/A   Clear
4:15 PM 78.8 °F 53.6 °F 42% 29.88 in 7.0 mi NNE 12.7 mph - N/A   Clear
4:35 PM 78.8 °F 51.8 °F 39% 29.89 in 7.0 mi North 9.2 mph - N/A   Clear
4:55 PM 78.8 °F 51.8 °F 39% 29.89 in 7.0 mi NNE 10.4 mph - N/A   Clear
5:15 PM 78.8 °F 51.8 °F 39% 29.89 in 7.0 mi NNE 6.9 mph - N/A   Clear
5:35 PM 77.0 °F 51.8 °F 41% 29.90 in 7.0 mi NNE 8.1 mph - N/A   Clear
5:55 PM 77.0 °F 51.8 °F 41% 29.90 in 7.0 mi NNE 6.9 mph - N/A   Clear
6:15 PM 75.2 °F 51.8 °F 44% 29.91 in 5.0 mi North 6.9 mph - N/A   Haze
6:35 PM 73.4 °F 53.6 °F 50% 29.92 in 7.0 mi NNE 5.8 mph - N/A   Clear
6:55 PM 69.8 °F 57.2 °F 64% 29.92 in 7.0 mi Calm Calm - N/A   Clear
7:15 PM 64.4 °F 59.0 °F 83% 29.93 in 7.0 mi Calm Calm - N/A   Clear
7:35 PM 62.6 °F 59.0 °F 88% 29.93 in 10.0 mi Calm Calm - N/A   Clear
7:55 PM 62.6 °F 59.0 °F 88% 29.94 in 7.0 mi Calm Calm - N/A   Clear
8:15 PM 60.8 °F 60.8 °F 100% 29.95 in 7.0 mi Calm Calm - N/A   Clear
8:35 PM 60.8 °F 60.8 °F 100% 29.95 in 7.0 mi Calm Calm - N/A   Clear
8:55 PM 60.8 °F 60.8 °F 100% 29.96 in 7.0 mi Calm Calm - N/A   Clear
9:15 PM 59.0 °F 59.0 °F 100% 29.96 in 7.0 mi Calm Calm - N/A   Clear
9:35 PM 59.0 °F 59.0 °F 100% 29.97 in 7.0 mi Calm Calm - N/A   Clear
9:55 PM 59.0 °F 59.0 °F 100% 29.97 in 7.0 mi Calm Calm - N/A   Clear
10:15 PM 59.0 °F 59.0 °F 100% 29.97 in 10.0 mi Calm Calm - N/A   Clear
10:35 PM 59.0 °F 59.0 °F 100% 29.97 in 7.0 mi Calm Calm - N/A   Clear
10:55 PM 59.0 °F 59.0 °F 100% 29.97 in 7.0 mi Calm Calm - N/A   Clear
11:15 PM 59.0 °F 59.0 °F 100% 29.97 in 7.0 mi Calm Calm - N/A   Clear
11:35 PM 59.0 °F 59.0 °F 100% 29.98 in 10.0 mi Calm Calm - N/A   Clear
11:55 PM 60.8 °F 59.0 °F 94% 29.98 in 7.0 mi North 4.6 mph - N/A   Clear